{"data":{"norad_id":54058,"epoch":"2026-09-20T11:44:57.726528Z","epoch_age_seconds":87818,"freshness":"FRESH","line1":"1 54058U 22136H   26263.48955702  .00000072  00000+0  12964-4 0  9999","line2":"2 54058  53.1604 177.6378 0001329  91.0046 269.1109 15.35397405216411","mean_motion":15.35397405,"eccentricity":0.0001329,"inclination_deg":53.1604,"raan_deg":177.6378,"arg_perigee_deg":91.0046,"mean_anomaly_deg":269.1109,"bstar":1.2964e-5,"rev_number":21641,"period_min":93.786793914765,"perigee_km":458.83159336889,"apogee_km":460.6491011678,"semimajor_km":6837.8773472683,"source":"CELESTRAK","updated_at":"2026-09-21T09:00:33.076954Z"}}